Time,TemperatureF,DewpointF,PressureIn,WindDirection,WindDirectionDegrees,WindSpeedMPH,WindSpeedGustMPH,Humidity,HourlyPrecipIn,Conditions,Clouds,dailyrainin,SoftwareType,DateUTC
2013-06-06 00:13:00,63.2,51.0,30.14,SSE,163,6.0,8.0,64,0.00,,,0.00,weatherlink.com 1.10,2013-06-06 04:13:00,
2013-06-06 00:28:00,62.8,49.0,30.14,SSE,165,5.0,8.0,62,0.00,,,0.00,weatherlink.com 1.10,2013-06-06 04:28:00,
2013-06-06 00:43:00,62.1,50.0,30.14,SSE,153,3.0,9.0,64,0.00,,,0.00,weatherlink.com 1.10,2013-06-06 04:43:00,
2013-06-06 00:58:00,61.6,50.0,30.14,South,172,6.0,9.0,65,0.00,,,0.00,weatherlink.com 1.10,2013-06-06 04:58:00,
2013-06-06 01:13:00,61.4,50.0,30.14,SSE,159,7.0,8.0,67,0.00,,,0.00,weatherlink.com 1.10,2013-06-06 05:13:00,
2013-06-06 01:28:00,61.0,49.0,30.13,SSE,167,5.0,8.0,66,0.00,,,0.00,weatherlink.com 1.10,2013-06-06 05:28:00,
2013-06-06 01:43:00,60.8,51.0,30.14,NW,304,2.0,6.0,69,0.00,,,0.00,weatherlink.com 1.10,2013-06-06 05:43:00,
2013-06-06 01:58:00,60.2,53.0,30.14,WSW,255,1.0,9.0,76,0.00,,,0.00,weatherlink.com 1.10,2013-06-06 05:58:00,
2013-06-06 02:13:00,58.4,51.0,30.14,West,269,3.0,4.0,76,0.00,,,0.00,weatherlink.com 1.10,2013-06-06 06:13:00,
2013-06-06 02:28:00,58.2,51.0,30.15,SW,217,1.0,4.0,77,0.00,,,0.00,weatherlink.com 1.10,2013-06-06 06:28:00,
2013-06-06 02:43:00,58.5,52.0,30.16,SSE,162,8.0,9.0,80,0.00,,,0.00,weatherlink.com 1.10,2013-06-06 06:43:00,
2013-06-06 02:58:00,58.8,52.0,30.15,South,178,8.0,11.0,77,0.00,,,0.00,weatherlink.com 1.10,2013-06-06 06:58:00,
2013-06-06 03:13:00,58.8,51.0,30.14,SSE,153,9.0,12.0,74,0.00,,,0.00,weatherlink.com 1.10,2013-06-06 07:13:00,
2013-06-06 03:28:00,58.6,51.0,30.14,South,177,10.0,12.0,75,0.00,,,0.00,weatherlink.com 1.10,2013-06-06 07:28:00,
2013-06-06 03:43:00,58.5,49.0,30.14,SSE,166,10.0,13.0,72,0.00,,,0.00,weatherlink.com 1.10,2013-06-06 07:43:00,
2013-06-06 03:58:00,58.4,49.0,30.14,SSE,153,10.0,14.0,71,0.00,,,0.00,weatherlink.com 1.10,2013-06-06 07:58:00,
2013-06-06 04:13:00,58.6,50.0,30.14,SSE,165,10.0,14.0,72,0.00,,,0.00,weatherlink.com 1.10,2013-06-06 08:13:00,
2013-06-06 04:28:00,58.2,50.0,30.14,SSE,159,10.0,15.0,73,0.00,,,0.00,weatherlink.com 1.10,2013-06-06 08:28:00,
2013-06-06 04:43:00,58.1,49.0,30.14,South,173,12.0,15.0,73,0.00,,,0.00,weatherlink.com 1.10,2013-06-06 08:43:00,
2013-06-06 04:58:00,58.1,50.0,30.14,SSW,197,11.0,13.0,74,0.00,,,0.00,weatherlink.com 1.10,2013-06-06 08:58:00,
2013-06-06 05:13:00,57.9,49.0,30.14,SSE,159,9.0,12.0,73,0.00,,,0.00,weatherlink.com 1.10,2013-06-06 09:13:00,
2013-06-06 05:28:00,57.6,49.0,30.13,South,172,7.0,11.0,72,0.00,,,0.00,weatherlink.com 1.10,2013-06-06 09:28:00,
2013-06-06 05:43:00,57.2,50.0,30.14,ENE,58,3.0,9.0,77,0.00,,,0.00,weatherlink.com 1.10,2013-06-06 09:43:00,
2013-06-06 05:58:00,57.1,51.0,30.15,SW,219,2.0,5.0,80,0.00,,,0.00,weatherlink.com 1.10,2013-06-06 09:58:00,
2013-06-06 06:13:00,57.9,51.0,30.15,South,190,7.0,9.0,79,0.00,,,0.00,weatherlink.com 1.10,2013-06-06 10:13:00,
2013-06-06 06:28:00,58.4,51.0,30.15,SSE,152,7.0,9.0,76,0.00,,,0.00,weatherlink.com 1.10,2013-06-06 10:28:00,
2013-06-06 06:43:00,58.8,50.0,30.15,SSW,193,8.0,10.0,73,0.00,,,0.00,weatherlink.com 1.10,2013-06-06 10:43:00,
2013-06-06 06:58:00,58.4,50.0,30.16,SSE,148,6.0,9.0,74,0.00,,,0.00,weatherlink.com 1.10,2013-06-06 10:58:00,
2013-06-06 07:13:00,58.7,51.0,30.16,SSE,156,7.0,9.0,76,0.00,,,0.00,weatherlink.com 1.10,2013-06-06 11:13:00,
2013-06-06 07:28:00,59.1,50.0,30.16,SE,144,7.0,8.0,72,0.00,,,0.00,weatherlink.com 1.10,2013-06-06 11:28:00,
2013-06-06 07:43:00,59.5,50.0,30.15,South,175,3.0,9.0,72,0.00,,,0.00,weatherlink.com 1.10,2013-06-06 11:43:00,
2013-06-06 07:58:00,60.1,51.0,30.15,SSE,156,7.0,7.0,71,0.00,,,0.00,weatherlink.com 1.10,2013-06-06 11:58:00,
2013-06-06 08:13:00,60.1,52.0,30.15,SSE,163,6.0,9.0,74,0.00,,,0.00,weatherlink.com 1.10,2013-06-06 12:13:00,
2013-06-06 08:28:00,61.2,52.0,30.14,West,259,2.0,-999.0,72,-99.99,,,0.00,weatherlink.com 1.10,2013-06-06 12:28:00,
2013-06-06 08:43:00,61.5,52.0,30.14,SSW,197,6.0,8.0,72,0.00,,,0.00,weatherlink.com 1.10,2013-06-06 12:43:00,
2013-06-06 08:58:00,62.0,52.0,30.14,SSE,167,4.0,7.0,70,0.00,,,0.00,weatherlink.com 1.10,2013-06-06 12:58:00,
2013-06-06 09:13:00,62.4,52.0,30.13,East,96,3.0,8.0,70,0.00,,,0.00,weatherlink.com 1.10,2013-06-06 13:13:00,
2013-06-06 09:28:00,62.8,53.0,30.13,SW,221,3.0,6.0,71,0.00,,,0.00,weatherlink.com 1.10,2013-06-06 13:28:00,
2013-06-06 09:43:00,63.2,53.0,30.13,SW,217,4.0,7.0,69,0.00,,,0.00,weatherlink.com 1.10,2013-06-06 13:43:00,
2013-06-06 09:58:00,63.7,53.0,30.13,South,184,4.0,9.0,69,0.00,,,0.00,weatherlink.com 1.10,2013-06-06 13:58:00,
2013-06-06 10:13:00,64.2,53.0,30.13,SSE,153,5.0,7.0,68,0.00,,,0.00,weatherlink.com 1.10,2013-06-06 14:13:00,
2013-06-06 10:28:00,64.9,54.0,30.12,SSW,195,4.0,7.0,68,0.00,,,0.00,weatherlink.com 1.10,2013-06-06 14:28:00,
2013-06-06 10:43:00,65.7,55.0,30.12,WSW,255,2.0,6.0,68,0.00,,,0.00,weatherlink.com 1.10,2013-06-06 14:43:00,
2013-06-06 11:01:00,-999.0,-99.9,0.00,North,-999,-999.0,-999.0,-999,0.00,,,0.00,weatherlink.com 1.10,2013-06-06 15:01:00,
2013-06-06 11:13:00,67.1,55.0,30.11,South,188,4.0,5.0,66,0.00,,,0.00,weatherlink.com 1.10,2013-06-06 15:13:00,
2013-06-06 11:28:00,67.9,55.0,30.11,WNW,302,3.0,5.0,64,0.00,,,0.00,weatherlink.com 1.10,2013-06-06 15:28:00,
2013-06-06 11:43:00,68.3,56.0,30.11,NNE,19,2.0,9.0,65,0.00,,,0.00,weatherlink.com 1.10,2013-06-06 15:43:00,
2013-06-06 11:58:00,68.1,55.0,30.11,East,79,6.0,11.0,64,0.00,,,0.00,weatherlink.com 1.10,2013-06-06 15:58:00,
2013-06-06 12:13:00,68.3,54.0,30.10,SW,219,4.0,9.0,60,0.00,,,0.00,weatherlink.com 1.10,2013-06-06 16:13:00,
2013-06-06 12:28:00,68.5,54.0,30.10,SW,222,8.0,11.0,61,0.00,,,0.00,weatherlink.com 1.10,2013-06-06 16:28:00,
2013-06-06 12:43:00,68.9,54.0,30.09,South,184,8.0,10.0,60,0.00,,,0.00,weatherlink.com 1.10,2013-06-06 16:43:00,
2013-06-06 12:58:00,69.3,54.0,30.09,WNW,297,3.0,11.0,59,0.00,,,0.00,weatherlink.com 1.10,2013-06-06 16:58:00,
2013-06-06 13:13:00,69.6,54.0,30.07,SSE,162,8.0,11.0,58,0.00,,,0.00,weatherlink.com 1.10,2013-06-06 17:13:00,
2013-06-06 13:28:00,70.1,55.0,30.07,SW,214,4.0,7.0,59,0.00,,,0.00,weatherlink.com 1.10,2013-06-06 17:28:00,
2013-06-06 13:43:00,70.4,57.0,30.06,South,187,8.0,10.0,63,0.00,,,0.00,weatherlink.com 1.10,2013-06-06 17:43:00,
2013-06-06 13:58:00,70.4,52.0,30.05,SSE,159,15.0,23.0,53,0.00,,,0.00,weatherlink.com 1.10,2013-06-06 17:58:00,
2013-06-06 14:04:00,-999.0,-99.9,0.00,North,-999,-999.0,-999.0,-999,0.00,,,0.00,weatherlink.com 1.10,2013-06-06 18:04:00,
2013-06-06 14:16:00,70.3,55.0,30.06,SSE,166,20.0,28.0,59,0.00,,,0.00,weatherlink.com 1.10,2013-06-06 18:16:00,
2013-06-06 14:31:00,69.9,55.0,30.06,South,186,25.0,29.0,59,0.00,,,0.00,weatherlink.com 1.10,2013-06-06 18:31:00,
2013-06-06 15:16:00,69.1,54.0,30.07,NNE,20,7.0,23.0,60,0.00,,,0.00,weatherlink.com 1.10,2013-06-06 19:16:00,
2013-06-06 15:31:00,68.6,55.0,30.06,South,180,11.0,26.0,63,0.00,,,0.00,weatherlink.com 1.10,2013-06-06 19:31:00,
2013-06-06 15:47:00,68.2,55.0,30.07,South,170,22.0,26.0,64,0.00,,,0.00,weatherlink.com 1.10,2013-06-06 19:47:00,
2013-06-06 16:02:00,67.5,54.0,30.06,South,170,23.0,25.0,62,0.00,,,0.00,weatherlink.com 1.10,2013-06-06 20:02:00,
2013-06-06 16:17:00,67.2,54.0,30.07,South,181,16.0,21.0,63,0.00,,,0.00,weatherlink.com 1.10,2013-06-06 20:17:00,
2013-06-06 16:32:00,67.2,53.0,30.07,West,271,9.0,17.0,61,0.00,,,0.00,weatherlink.com 1.10,2013-06-06 20:32:00,
2013-06-06 16:47:00,67.2,55.0,30.07,SE,139,10.0,16.0,64,0.00,,,0.00,weatherlink.com 1.10,2013-06-06 20:47:00,
2013-06-06 17:02:00,67.0,54.0,30.07,SW,225,8.0,14.0,64,0.00,,,0.00,weatherlink.com 1.10,2013-06-06 21:02:00,
2013-06-06 17:17:00,66.7,54.0,30.07,SE,142,6.0,10.0,65,0.00,,,0.00,weatherlink.com 1.10,2013-06-06 21:17:00,
2013-06-06 17:32:00,66.3,55.0,30.07,SSE,165,7.0,13.0,66,0.00,,,0.00,weatherlink.com 1.10,2013-06-06 21:32:00,
2013-06-06 17:47:00,65.3,55.0,30.07,SSE,165,9.0,11.0,69,0.00,,,0.00,weatherlink.com 1.10,2013-06-06 21:47:00,
2013-06-06 18:02:00,64.4,55.0,30.07,SSE,156,8.0,12.0,72,0.00,,,0.00,weatherlink.com 1.10,2013-06-06 22:02:00,
2013-06-06 18:17:00,63.8,55.0,30.06,SSE,162,7.0,10.0,74,0.00,,,0.00,weatherlink.com 1.10,2013-06-06 22:17:00,
2013-06-06 18:32:00,63.0,55.0,30.06,SSE,165,5.0,8.0,75,0.00,,,0.00,weatherlink.com 1.10,2013-06-06 22:32:00,
2013-06-06 18:47:00,62.9,56.0,30.06,WSW,242,1.0,7.0,77,0.00,,,0.00,weatherlink.com 1.10,2013-06-06 22:47:00,
2013-06-06 19:02:00,61.9,55.0,30.07,West,279,1.0,3.0,79,0.00,,,0.00,weatherlink.com 1.10,2013-06-06 23:02:00,
2013-06-06 19:17:00,61.1,56.0,30.07,SSW,195,2.0,2.0,82,0.00,,,0.00,weatherlink.com 1.10,2013-06-06 23:17:00,
2013-06-06 19:32:00,60.5,55.0,30.08,SSW,204,3.0,5.0,82,0.00,,,0.00,weatherlink.com 1.10,2013-06-06 23:32:00,
2013-06-06 19:47:00,60.2,56.0,30.08,SSE,150,2.0,4.0,85,0.00,,,0.00,weatherlink.com 1.10,2013-06-06 23:47:00,
2013-06-06 20:02:00,60.2,56.0,30.07,SSE,162,5.0,7.0,85,0.00,,,0.00,weatherlink.com 1.10,2013-06-07 00:02:00,
2013-06-06 20:17:00,59.9,56.0,30.07,SSE,158,2.0,6.0,87,0.00,,,0.00,weatherlink.com 1.10,2013-06-07 00:17:00,
2013-06-06 20:32:00,59.4,56.0,30.07,WNW,300,2.0,4.0,88,0.00,,,0.00,weatherlink.com 1.10,2013-06-07 00:32:00,
2013-06-06 20:47:00,59.1,56.0,30.07,SSW,210,1.0,1.0,88,0.00,,,0.00,weatherlink.com 1.10,2013-06-07 00:47:00,
2013-06-06 21:02:00,59.1,56.0,30.07,SW,231,1.0,2.0,89,0.00,,,0.00,weatherlink.com 1.10,2013-06-07 01:02:00,
2013-06-06 21:17:00,58.9,56.0,30.07,WNW,285,1.0,3.0,89,0.00,,,0.00,weatherlink.com 1.10,2013-06-07 01:17:00,
2013-06-06 21:32:00,58.7,56.0,30.08,SSW,201,2.0,5.0,90,0.00,,,0.00,weatherlink.com 1.10,2013-06-07 01:32:00,
2013-06-06 21:47:00,58.4,56.0,30.08,SW,231,1.0,4.0,91,0.00,,,0.00,weatherlink.com 1.10,2013-06-07 01:47:00,
2013-06-06 22:02:00,58.1,56.0,30.07,SW,226,1.0,4.0,92,0.00,,,0.00,weatherlink.com 1.10,2013-06-07 02:02:00,
2013-06-06 22:17:00,57.9,56.0,30.07,SW,222,2.0,4.0,92,0.00,,,0.00,weatherlink.com 1.10,2013-06-07 02:17:00,
2013-06-06 22:32:00,57.9,56.0,30.06,WNW,288,2.0,3.0,92,0.00,,,0.00,weatherlink.com 1.10,2013-06-07 02:32:00,
2013-06-06 22:47:00,57.7,55.0,30.05,WNW,297,2.0,3.0,92,0.00,,,0.00,weatherlink.com 1.10,2013-06-07 02:47:00,
2013-06-06 23:02:00,57.9,55.0,30.05,WNW,291,0.0,3.0,91,0.00,,,0.00,weatherlink.com 1.10,2013-06-07 03:02:00,
2013-06-06 23:17:00,58.0,56.0,30.05,WNW,283,1.0,4.0,92,0.00,,,0.00,weatherlink.com 1.10,2013-06-07 03:17:00,
2013-06-06 23:32:00,58.0,56.0,30.05,WNW,283,3.0,4.0,93,0.00,,,0.00,weatherlink.com 1.10,2013-06-07 03:32:00,
2013-06-06 23:47:00,58.3,56.0,30.06,WSW,257,2.0,5.0,93,0.00,,,0.00,weatherlink.com 1.10,2013-06-07 03:47:00,